Terminal Aerodrome Forecast
Issued by NWS

Home | Current Version | Previous Version | Text Only | Print | Product List | Glossary On
Versions: 1 2 3 4 5 6 7 8 9 10 11 12 13 14 15
337
FTAK31 PAJN 241956 AAA
TAFAPG
TAF AMD
PAPG 241956Z 2420/2518 14010KT P6SM FEW015 OVC035 WS020/15035KT
      TEMPO 2420/2424 14010G20KT 6SM -RA SCT015 BKN025 OVC040
     FM250200 10017G25KT 5SM -RA SCT015 BKN025 OVC040 WS020/14040KT
     FM250800 11007KT 6SM -RA BR OVC015 WS020/15035KT
     FM251300 11005KT 3SM -RA BR SCT007 OVC015
      AMD LTD TO CLD VIS AND WIND 2506/2515=

USA.gov is the U.S. government's official web portal to all federal, state and local government web resources and services.